SCP
0 0 0 0 0 0 0 0 0 0 0 0 0 0 0 0 0 0 0 0 0 0 0 0 0 0 0 0 0 0 0 0 0 0 0 0 0 0
0 0 0 0 0 0 0 0 0 0 0 0 0 0 0 0 0 0 0 0 0 0 0 0 0 0 0 0 0 0 0 0 0 0 0 0 0 0
0 0 0 0 0 0 0 0 0 0 0 0 0 0 0 0 0 0 0 0 0 0 0 0 0 0 0 0 0 0 0 0 0 0 0 0 0 0
0 0 0 0 0 0 0 0 0 0 0 0 0 0 0 0 0 0 0 0 0 0 0 0 0 0 0 0 0 0 0 0 0 0 0 0 0 0
0 0 0 0 0 0 0 0 0 0 0 0 0 0 0 0 0 0 0 0 0 0 0 0 0 0 0 0 0 0 0 0 0 0 0 0 0 0
0 0 0 0 0 0 0 0 0 0 0 0 0 0 0 0 0 0 0 0 0 0 0 0 0 0 0 0 0 0 0 0 0 0 0 0 0 0
0 0 0 0 0 0 0 0 0 0 0 0 0 0 0 0 0 0 0 0 0 0 0 0 0 0 0 0 0 0 0 0 0 0 0 0 0 0
0 0 0 0 0 0 0 0 0 0 0 0 0 0 0 0 0 0 0 0 0 0 0 0 0 0 0 0 0 0 0 0 0 0 0 0 0 0
0 0 0 0 0 0 0 0 0 0 0 0 0 0 0 0 0 0 0 0 0 0 0 0 0 0 0 0 0 0 0 0 0 0 0 0 0 0
0 0 0 0 0 0 0 0 0 0 0 0 0 0 0 0 0 0 0 0 0 0 0 0 0 0 0 0 0 0 0 0 0 0 0 0 0 0
0 0 0 0 0 0 0 0 0 0 0 0 0 0 0 0 0 0 0 0 0 0 0 0 0 0 0 0 0 0 0 0 0 0 0 0 0 0
0 0 0 0 0 0 0 0 0 0 0 0 0 0 0 0 0 0 0 0 0 0 0 0 0 0 0 0 0 0 0 0 0 0 0 0 0 0
0 0 0 0 0 0 0 0 0 0 0 0 0 0 0 0 0 0 0 0 0 0 0 0 0 0 0 0 0 0 0 0 0 0 0 0 0 0
0 0 0 0 0 0 0 0 0 0 0 0 0 0 0 0 0 0 0 0 0 0 0 0 0 0 0 0 0 0 0 0 0 0 0 0 0 0
0 0 0 0 0 0 0 0 0 0 0 0 0 0 0 0 0 0 0 0 0 0 0 0 0 0 0 0 0 0 0 0 0 0 0 0 0 0
0 0 0 0 0 0 0 0 0 0 0 0 0 0 0 0 0 0 0 0 0 0 0 0 0 0 0 0 0 0 0 0 0 0 0 0 0 0
0 0 0 0 0 0 0 0 0 0 0 0 0 0 0 0 0 0 0 0 0 0 0 0 0 0 0 0 0 0 0 0 0 0 0 0 0 0
0 0 0 0 0 0 0 0 0 0 0 0 0 0 0 0 0 0 0 0 0 0 0 0 0 0 0 0 0 0 0 0 0 0 0 0 0 0
0 0 0 0 0 0 0 0 0 0 0 0 0 0 0 0 0 0 0 0 0 0 0 0 0 0 0 0 0 0 0 0 0 0 0 0 0 0
0 0 0 0 0 0 0 0 0 0 0 0 0 0 0 0 0 0 0 0 0 0 0 0 0 0 0 0 0 0 0 0 0 0 0 0 0 0
0 0 0 0 0 0 0 0 0 0 0 0 0 0 0 0 0 0 0 0 0 0 0 0 0 0 0 0 0 0 0 0 0 0 0 0 0 0
0 0 0 0 0 0 0 0 0 0 0 0 0 0 0 0 0 0 0 0 0 0 0 0 0 0 0 0 0 0 0 0 0 0 0 0 0 0
0 0 0 0 0 0 0 0 0 0 0 0 0 0 0 0 0 0 0 0 0 0 0 0 0 0 0 0 0 0 0 0 0 0 0 0 0 0
Wind_Speed
15 15 12 9 8 8 7 8 7 6 8 7 6 6 6 5 12 8 7 19 25 27 28 29 29 30 31 31 32 33 33 33 34 34 35 35 36 36
11 13 14 10 8 8 9 8 9 9 7 6 7 4 4 7 14 10 8 23 27 28 29 29 30 30 31 32 32 33 34 34 34 35 36 37 37 37
14 15 16 13 10 9 8 8 9 9 11 7 6 6 8 9 9 8 9 9 11 26 29 30 30 31 31 32 33 34 34 35 35 36 37 37 38 38
17 16 16 13 15 11 10 11 11 11 10 11 7 7 9 8 8 10 11 12 9 22 29 30 31 31 32 32 33 34 34 35 36 36 37 38 38 38
16 17 16 15 16 14 13 12 11 11 10 10 9 7 8 8 8 10 12 10 12 17 24 26 28 30 31 32 33 34 34 35 35 36 36 37 37 38
15 16 16 18 17 16 14 14 12 11 10 9 9 8 9 8 8 9 10 8 10 11 16 19 25 30 31 33 33 34 34 35 35 36 36 36 36 36
15 16 17 21 24 20 15 13 12 11 10 10 10 9 10 8 9 7 10 8 8 9 9 11 12 11 13 22 28 32 34 34 35 35 35 35 35 35
15 15 16 23 28 34 32 28 22 15 13 12 11 11 12 10 8 8 8 9 11 5 8 11 9 11 10 9 23 32 33 34 35 35 35 35 35 35
15 14 14 16 24 17 24 32 29 31 27 16 14 14 13 10 8 10 10 11 14 8 8 14 9 12 11 14 28 32 33 34 34 34 34 34 34 34
16 15 15 14 16 17 15 16 15 16 18 14 12 12 11 9 9 10 12 13 13 9 8 14 11 12 12 10 23 31 33 33 33 32 33 33 33 33
14 15 16 15 23 29 19 16 16 15 21 26 25 22 25 26 20 11 10 10 13 9 5 9 12 13 12 11 15 28 30 30 30 31 31 32 31 31
11 14 24 23 25 29 19 15 17 14 11 11 15 18 16 16 23 12 8 10 12 11 5 6 8 9 12 8 8 8 12 22 29 30 30 30 29 19
10 10 12 26 29 30 25 15 18 15 9 10 9 9 8 8 8 8 8 9 11 12 6 6 10 11 13 15 11 10 10 11 12 16 22 27 28 23
10 8 11 24 27 28 22 20 24 20 8 8 8 8 7 7 7 7 9 9 11 13 10 9 11 12 14 16 15 9 8 9 11 12 11 19 22 26
9 16 18 22 23 18 22 23 18 10 6 7 8 8 6 6 5 5 6 7 9 10 11 11 13 13 13 15 16 14 13 12 10 11 11 11 11 11
10 14 21 22 17 14 13 12 8 6 7 7 6 5 4 4 5 5 5 6 8 9 9 11 12 14 14 15 15 15 13 11 9 9 11 11 11 11
6 6 7 7 8 7 6 6 6 5 7 5 5 5 5 6 6 5 5 6 8 10 9 7 8 10 14 14 14 14 13 13 12 11 11 12 11 10
11 7 8 8 8 8 8 7 7 7 6 6 5 5 5 5 6 5 5 7 9 9 9 8 8 9 10 11 15 15 13 12 10 11 11 11 12 10
10 7 7 7 7 7 7 7 6 6 5 5 5 5 5 5 6 7 7 7 8 9 8 7 8 9 12 12 8 11 11 10 9 10 9 10 11 10
6 6 6 6 6 6 6 6 5 5 5 5 5 5 5 6 7 8 7 8 9 9 9 7 7 8 11 12 11 10 14 12 10 10 9 9 10 12
5 5 5 5 5 6 6 5 5 5 5 4 5 5 5 6 7 8 8 13 12 9 10 9 9 15 11 9 11 10 8 13 15 11 9 8 8 7
5 5 5 5 5 5 5 5 5 4 5 5 5 5 5 6 8 9 8 8 8 9 10 9 8 8 8 10 12 13 12 10 13 19 20 16 8 5
5 5 5 5 5 5 5 5 6 5 4 4 5 5 5 6 7 7 8 8 8 9 9 9 8 7 8 9 11 11 13 12 8 8 9 14 20 22
Wind_Direction
218 216 218 215 210 207 201 193 194 218 229 217 226 228 224 225 251 256 243 262 270 273 275 277 278 280 281 281 282 282 282 281 280 279 277 276 275 274
215 216 218 215 213 210 209 207 207 215 230 214 220 227 244 259 264 262 252 268 271 275 278 279 279 279 280 281 281 281 280 280 279 277 275 274 273 271
217 217 218 211 212 212 210 209 213 215 237 236 228 241 244 249 260 260 259 258 262 271 274 276 277 278 279 280 280 280 280 279 278 277 275 274 272 271
217 216 217 212 213 211 212 215 217 218 228 241 238 240 243 246 249 255 263 263 256 267 272 274 276 278 280 281 281 281 281 280 278 276 274 273 272 270
217 216 215 211 214 213 212 215 219 223 225 236 243 241 247 249 253 258 258 260 262 268 273 275 278 280 281 281 282 282 282 280 278 277 274 272 271 270
217 216 213 213 215 213 215 217 218 222 225 233 241 244 249 247 245 254 261 253 259 266 272 274 277 281 282 283 283 283 283 281 279 277 275 272 270 269
218 217 216 216 219 217 217 216 216 220 224 230 238 244 247 244 243 246 258 261 258 258 266 268 272 270 272 277 280 281 280 279 277 276 274 272 269 267
223 220 221 226 228 227 226 224 218 218 223 226 232 237 243 241 244 248 258 269 274 241 252 265 263 270 269 263 274 277 277 277 276 275 273 271 269 267
224 221 223 225 226 227 234 235 232 228 224 221 231 237 242 242 244 254 257 261 268 265 270 277 269 272 270 274 280 281 281 280 278 276 273 271 269 266
223 220 221 222 221 220 223 230 237 240 239 236 234 241 245 246 241 251 262 269 269 262 253 275 278 276 278 273 280 281 282 281 279 278 276 272 268 265
223 220 221 221 225 227 223 223 231 238 245 244 243 247 251 255 255 257 260 269 277 272 235 263 280 285 282 277 276 279 280 282 284 283 280 276 270 265
226 222 225 223 226 229 224 219 226 229 227 237 247 255 258 261 266 261 257 267 275 280 243 248 276 291 290 268 259 271 279 283 285 284 282 278 273 266
231 225 222 228 229 229 227 221 228 227 221 227 236 242 242 241 244 242 236 242 260 267 261 264 278 278 277 284 281 273 269 272 277 280 281 278 272 266
232 226 222 225 229 232 231 230 232 236 227 226 235 239 238 238 237 235 234 235 243 258 265 261 271 276 279 280 284 279 266 268 272 275 272 273 272 267
230 230 228 226 227 232 235 234 234 230 218 227 235 239 235 236 237 241 247 248 252 255 262 258 262 269 268 273 279 281 283 279 267 267 270 268 264 265
249 238 234 228 223 221 225 233 226 215 216 228 233 236 236 239 243 244 255 261 270 272 259 256 258 262 268 270 273 277 275 273 274 274 276 273 265 258
233 222 217 210 211 207 206 208 207 214 229 223 226 236 244 250 253 246 252 264 271 279 282 271 260 259 263 269 272 270 271 270 268 270 274 273 267 258
239 226 216 210 208 205 204 204 205 212 218 222 227 235 245 252 261 261 258 263 271 275 279 282 284 283 276 262 250 262 265 267 268 266 265 268 269 262
240 225 213 203 201 200 199 199 204 208 208 213 223 231 241 252 261 267 268 268 271 273 275 277 279 283 287 289 270 254 269 278 276 269 261 260 266 266
229 220 207 197 194 194 195 198 202 201 202 210 220 229 239 253 263 267 268 269 275 278 280 275 271 272 275 283 286 278 273 270 269 269 270 268 265 266
217 206 194 189 188 189 192 194 196 200 203 209 221 230 239 251 261 265 268 275 280 281 282 281 273 282 281 278 276 277 271 270 267 263 268 273 270 260
204 192 186 184 182 183 185 188 195 202 207 216 226 234 242 250 260 265 267 272 275 276 279 281 280 281 275 273 276 283 287 284 277 270 260 252 260 262
192 183 181 180 178 178 182 191 198 207 212 219 229 238 245 255 260 264 267 271 275 279 283 287 285 277 274 274 277 280 282 285 283 275 264 253 250 257